N6RDS-8 Weather Reports


time (UTC)temp
C
wind
direction
speed
KPH
gust
KPH
rain 1hr
cm
rain 24hr
cm
rain mn
cm
humidity
%
barometer
mb
20260506024709 17 137 4.8 4.8 0.00 0.10 0.10 39 1015.9
20260506024205 17 313 4.8 6.4 0.00 0.10 0.10 39 1015.9
20260506023701 17 173 4.8 6.4 0.00 0.10 0.10 38 1015.7
20260506023159 17 253 6.4 6.4 0.00 0.10 0.10 37 1015.5
20260506022656 17 204 3.2 4.8 0.00 0.10 0.10 37 1015.6
20260506022153 17 305 6.4 6.4 0.00 0.10 0.10 37 1015.2
20260506021651 17 211 4.8 4.8 0.00 0.10 0.10 36 1015.2
20260506021148 18 261 4.8 9.7 0.00 0.10 0.10 34 1015.1
20260506020640 18 201 4.8 6.4 0.00 0.10 0.10 33 1015.0
20260506020137 18 209 6.4 6.4 0.00 0.10 0.10 34 1014.9
20260506015635 19 131 3.2 3.2 0.00 0.10 0.10 34 1014.9
20260506015132 19 223 3.2 4.8 0.00 0.10 0.10 34 1014.9
20260506014630 20 94 1.6 3.2 0.00 0.10 0.10 33 1014.8
20260506014125 20 175 4.8 6.4 0.00 0.10 0.10 33 1014.8
20260506013623 20 251 6.4 11.3 0.00 0.10 0.10 33 1014.5
20260506013119 20 228 1.6 3.2 0.00 0.10 0.10 34 1014.6
20260506012615 20 224 6.4 9.7 0.00 0.10 0.10 33 1014.6
20260506012112 20 250 6.4 6.4 0.00 0.10 0.10 33 1014.5
20260506011610 21 201 6.4 11.3 0.00 0.10 0.10 32 1014.5
20260506011106 21 177 4.8 9.7 0.00 0.10 0.10 32 1014.3
20260506010600 21 181 9.7 11.3 0.00 0.10 0.10 32 1014.3
20260506010056 21 145 4.8 6.4 0.00 0.10 0.10 31 1014.2
20260506005554 21 218 3.2 4.8 0.00 0.10 0.10 31 1014.2
20260506005049 21 247 4.8 4.8 0.00 0.10 0.10 32 1014.2
20260506004546 21 212 9.7 12.9 0.00 0.10 0.10 31 1013.9
20260506004043 22 214 11.3 14.5 0.00 0.10 0.10 31 1014.1
20260506003539 22 242 6.4 11.3 0.00 0.10 0.10 31 1014.0
20260506003036 22 161 8.0 9.7 0.00 0.10 0.10 30 1014.2
20260506002532 22 232 8.0 9.7 0.00 0.10 0.10 30 1014.1
20260506002028 22 215 8.0 9.7 0.00 0.10 0.10 29 1013.8
20260506001524 22 230 9.7 16.1 0.00 0.10 0.10 29 1014.0
20260506001021 22 178 8.0 11.3 0.00 0.10 0.10 26 1013.8
20260506000519 22 228 4.8 4.8 0.00 0.10 0.10 30 1014.0
20260506000016 22 274 8.0 11.3 0.00 0.10 0.10 30 1014.0
20260505235514 23 243 9.7 12.9 0.00 0.10 0.10 29 1013.9
20260505235010 23 163 4.8 6.4 0.00 0.10 0.10 30 1013.8
20260505234508 23 239 8.0 9.7 0.00 0.10 0.10 29 1013.7
20260505234004 23 261 11.3 12.9 0.00 0.10 0.10 29 1013.7
20260505233502 23 255 11.3 16.1 0.00 0.10 0.10 30 1013.8
20260505232959 23 280 6.4 9.7 0.00 0.10 0.10 30 1013.6
20260505232457 24 257 14.5 17.7 0.00 0.10 0.10 30 1013.6
20260505231954 24 172 4.8 4.8 0.00 0.10 0.10 31 1013.7
20260505231452 23 252 6.4 9.7 0.00 0.10 0.10 31 1013.7
20260505230950 25 277 6.4 6.4 0.00 0.10 0.10 30 1013.6
20260505230447 24 162 9.7 11.3 0.00 0.10 0.10 31 1013.5
20260505225943 23 226 4.8 6.4 0.00 0.10 0.10 32 1013.6
20260505225441 23 255 6.4 6.4 0.00 0.10 0.10 31 1013.6
20260505224936 23 133 3.2 6.4 0.00 0.10 0.10 32 1013.7
20260505224433 23 197 8.0 11.3 0.00 0.10 0.10 30 1013.8
20260505223930 23 200 6.4 9.7 0.00 0.10 0.10 31 1013.8
20260505223427 23 216 9.7 11.3 0.00 0.10 0.10 30 1013.8
20260505222924 24 267 9.7 14.5 0.00 0.10 0.10 30 1013.8
20260505222420 24 161 8.0 11.3 0.00 0.10 0.10 31 1013.8
20260505221916 23 159 8.0 12.9 0.00 0.10 0.10 31 1013.9
20260505221413 23 239 9.7 12.9 0.00 0.10 0.10 30 1013.8
20260505220910 23 231 8.0 11.3 0.00 0.10 0.10 30 1014.1
20260505220407 23 195 14.5 22.5 0.00 0.10 0.10 29 1014.0
20260505215905 23 228 12.9 17.7 0.00 0.10 0.10 31 1014.1
20260505215403 23 168 4.8 4.8 0.00 0.10 0.10 32 1014.0
20260505214900 23 183 9.7 16.1 0.00 0.10 0.10 31 1014.1
20260505214358 23 239 14.5 22.5 0.00 0.10 0.10 33 1014.2
20260505213855 23 234 11.3 16.1 0.00 0.10 0.10 32 1014.3
20260505213353 24 179 9.7 11.3 0.00 0.10 0.10 30 1014.3
20260505212848 23 94 11.3 16.1 0.00 0.10 0.10 32 1014.3
20260505212346 25 205 6.4 9.7 0.00 0.10 0.10 31 1014.5
20260505211842 24 247 17.7 20.9 0.00 0.10 0.10 30 1014.2
20260505211339 24 260 17.7 25.7 0.00 0.10 0.10 31 1014.7
20260505210836 23 260 14.5 17.7 0.00 0.10 0.10 31 1014.6
20260505210333 24 180 9.7 11.3 0.00 0.10 0.10 30 1014.5
20260505205829 23 237 8.0 12.9 0.00 0.10 0.10 33 1014.9
20260505205328 24 84 6.4 9.7 0.00 0.10 0.10 34 1014.8
20260505204824 23 206 3.2 6.4 0.00 0.10 0.10 34 1014.8
20260505204322 23 201 3.2 4.8 0.00 0.10 0.10 35 1014.7
20260505203819 23 158 8.0 12.9 0.00 0.10 0.10 35 1015.1
20260505203316 23 194 8.0 11.3 0.00 0.10 0.10 34 1014.8
20260505202812 24 178 8.0 9.7 0.00 0.10 0.10 35 1015.0
20260505202308 23 219 9.7 16.1 0.00 0.10 0.10 34 1014.8
20260505201806 25 182 11.3 14.5 0.00 0.10 0.10 35 1014.8
20260505201303 23 200 8.0 11.3 0.00 0.10 0.10 35 1015.0
20260505200801 23 206 6.4 11.3 0.00 0.10 0.10 36 1015.0
20260505200258 23 210 9.7 11.3 0.00 0.10 0.10 35 1014.8
20260505195753 22 230 9.7 14.5 0.00 0.10 0.10 37 1015.0
20260505195251 22 209 3.2 4.8 0.00 0.10 0.10 38 1015.0
20260505194748 22 169 4.8 4.8 0.00 0.10 0.10 37 1015.5
20260505194245 21 175 11.3 16.1 0.00 0.10 0.10 38 1015.5
20260505193740 21 285 4.8 6.4 0.00 0.10 0.10 41 1015.5
20260505193238 23 234 6.4 9.7 0.00 0.10 0.10 39 1015.7
20260505192736 22 198 9.7 11.3 0.00 0.10 0.10 38 1015.7
20260505192233 22 154 6.4 6.4 0.00 0.10 0.10 40 1015.8
20260505191726 22 233 4.8 4.8 0.00 0.10 0.10 40 1015.6
20260505191224 21 178 4.8 6.4 0.00 0.10 0.10 41 1015.6
20260505190719 23 183 11.3 12.9 0.00 0.10 0.10 39 1015.8
20260505190213 23 192 6.4 9.7 0.00 0.10 0.10 39 1016.0
20260505185710 21 113 6.4 9.7 0.00 0.10 0.10 41 1016.1
20260505185207 22 171 8.0 12.9 0.00 0.10 0.10 41 1016.2
20260505184703 23 274 8.0 14.5 0.00 0.10 0.10 40 1016.1
20260505184201 22 78 9.7 12.9 0.00 0.10 0.10 42 1015.9
20260505183657 22 177 6.4 9.7 0.00 0.10 0.10 43 1016.1
20260505183155 21 165 6.4 6.4 0.00 0.10 0.10 44 1016.5
20260505182650 21 171 9.7 11.3 0.00 0.10 0.10 43 1016.1
20260505182148 21 233 8.0 9.7 0.00 0.10 0.10 46 1016.2
20260505181644 22 134 6.4 9.7 0.00 0.10 0.10 46 1016.1
20260505181142 21 224 4.8 6.4 0.00 0.10 0.10 47 1016.4
20260505180638 21 154 6.4 11.3 0.00 0.10 0.10 46 1016.4
20260505180135 21 147 9.7 14.5 0.00 0.10 0.10 45 1016.4
20260505175631 21 231 6.4 6.4 0.00 0.10 0.10 47 1016.7
20260505175128 21 177 8.0 12.9 0.00 0.10 0.10 49 1016.5
20260505174624 22 195 9.7 12.9 0.00 0.10 0.10 47 1016.2
20260505174121 21 178 9.7 11.3 0.00 0.10 0.10 48 1016.5
20260505173617 21 175 6.4 9.7 0.00 0.10 0.10 50 1016.5
20260505173114 20 190 6.4 11.3 0.00 0.10 0.10 51 1016.6
20260505172611 21 251 8.0 12.9 0.00 0.10 0.10 53 1016.7
20260505172108 20 222 9.7 14.5 0.00 0.10 0.10 53 1016.7
20260505171602 21 224 8.0 11.3 0.00 0.10 0.10 51 1016.4
20260505171100 20 176 4.8 4.8 0.00 0.10 0.10 57 1016.6
20260505170556 20 85 3.2 3.2 0.00 0.10 0.10 58 1016.7
20260505170053 20 340 1.6 1.6 0.00 0.10 0.10 62 1016.6
20260505165548 20 217 3.2 3.2 0.00 0.10 0.10 61 1016.7
20260505165044 18 295 6.4 9.7 0.00 0.10 0.10 61 1016.8
20260505164540 18 207 1.6 3.2 0.00 0.10 0.10 64 1016.7
20260505164038 18 118 1.6 3.2 0.00 0.10 0.10 65 1016.8
20260505163537 17 160 3.2 3.2 0.00 0.10 0.10 64 1016.7
20260505163033 17 125 1.6 3.2 0.00 0.10 0.10 64 1016.7
20260505162526 17 318 3.2 3.2 0.00 0.10 0.10 67 1016.9
20260505162023 17 17 1.6 3.2 0.00 0.10 0.10 67 1016.8
20260505161520 17 89 1.6 1.6 0.00 0.10 0.10 68 1016.9
20260505161017 18 319 3.2 4.8 0.00 0.10 0.10 63 1016.9
20260505160515 17 85 0.0 1.6 0.00 0.10 0.10 60 1016.7
20260505152951 15 101 0.0 0.0 0.00 0.10 0.10 81 1016.7
20260505152449 15 110 1.6 1.6 0.00 0.10 0.10 82 1016.6
20260505151943 14 113 0.0 1.6 0.00 0.10 0.10 84 1016.8
20260505151434 14 113 3.2 3.2 0.00 0.10 0.10 85 1016.7
20260505150932 13 104 0.0 0.0 0.00 0.10 0.10 86 1016.8
20260505150428 13 79 1.6 3.2 0.00 0.10 0.10 87 1016.9
20260505140357 13 106 0.0 0.0 0.00 0.10 0.10 90 1016.2
20260505124811 12 108 0.0 0.0 0.00 0.08 0.08 92 1015.9
20260505124308 12 107 0.0 0.0 0.00 0.08 0.08 91 1015.9
20260505123804 12 107 0.0 0.0 0.00 0.08 0.08 91 1015.9
20260505123300 12 109 0.0 0.0 0.13 0.08 0.08 90 1015.9
20260505122757 12 114 3.2 3.2 0.13 0.08 0.08 90 1015.8
20260505122255 12 117 1.6 3.2 0.13 0.08 0.08 89 1015.8
20260505121751 12 111 1.6 1.6 0.00 0.05 0.05 90 1016.0
20260505121247 12 127 3.2 4.8 0.00 0.05 0.05 89 1015.3
20260505120744 12 110 1.6 1.6 0.00 0.05 0.05 90 1015.5
20260505120240 12 110 1.6 1.6 0.00 0.05 0.05 91 1015.6
20260505115739 12 99 1.6 1.6 0.00 0.05 0.05 92 1015.5
20260505115237 12 109 0.0 1.6 0.00 0.05 0.05 92 1015.3
20260505114734 12 106 0.0 0.0 0.00 0.05 0.05 92 1015.6
20260505114230 12 92 0.0 1.6 0.00 0.05 0.05 92 1015.8
20260505113726 12 114 1.6 1.6 0.00 0.05 0.05 93 1015.9
20260505113224 12 106 1.6 3.2 0.00 0.05 0.05 92 1016.4
20260505112720 12 149 3.2 3.2 0.00 0.05 0.05 92 1016.4
20260505112218 12 106 0.0 0.0 0.00 0.05 0.05 92 1016.2
20260505111717 12 136 0.0 0.0 0.00 0.05 0.05 92 1016.0
20260505111213 12 110 1.6 1.6 0.00 0.05 0.05 93 1016.2
20260505110709 12 112 1.6 1.6 0.00 0.05 0.05 93 1016.2
20260505110207 12 109 1.6 3.2 0.00 0.05 0.05 93 1016.4
20260505102142 12 89 1.6 1.6 0.00 0.03 0.03 92 1017.0
20260505101641 12 96 0.0 0.0 0.00 0.03 0.03 92 1017.2
20260505101137 12 107 0.0 0.0 0.18 0.03 0.03 92 1017.5
20260505100633 12 86 1.6 1.6 0.18 0.03 0.03 91 1017.4
20260505100130 12 93 0.0 1.6 0.00 0.00 0.00 91 1017.8
20260505095626 12 90 1.6 1.6 0.00 0.00 0.00 90 1017.7
20260505095123 12 38 4.8 4.8 0.00 0.00 0.00 90 1017.7
20260505094620 12 21 4.8 4.8 0.00 0.00 0.00 90 1017.8
20260505094116 12 98 1.6 1.6 0.00 0.00 0.00 90 1017.8
20260505093612 12 50 4.8 6.4 0.00 0.00 0.00 89 1017.9
20260505093109 12 12 3.2 4.8 0.00 0.00 0.00 89 1018.0
20260505092607 13 83 0.0 1.6 0.00 0.00 0.00 88 1018.2
20260505092106 13 47 3.2 4.8 0.00 0.00 0.00 87 1018.0
20260505091602 13 314 3.2 3.2 0.00 0.00 0.00 86 1018.0
20260505091100 13 93 1.6 3.2 0.00 0.00 0.00 85 1018.1
20260505090558 13 75 4.8 6.4 0.00 0.00 0.00 84 1018.1
20260505090055 13 102 3.2 3.2 0.00 0.00 0.00 82 1018.2
20260505085553 13 90 1.6 1.6 0.00 0.00 0.00 80 1018.2
20260505085051 14 16 3.2 4.8 0.00 0.00 0.00 77 1018.4
20260505084549 14 343 3.2 3.2 0.00 0.00 0.00 74 1018.1
20260505084047 15 71 3.2 4.8 0.00 0.00 0.00 72 1018.6
20260505083543 15 287 4.8 4.8 0.00 0.00 0.00 71 1018.7
20260505083040 15 19 6.4 12.9 0.00 0.00 0.00 70 1018.7
20260505082536 15 188 3.2 4.8 0.00 0.00 0.00 69 1018.6
20260505082033 15 319 1.6 4.8 0.00 0.00 0.00 67 1018.5
20260505081529 15 59 1.6 1.6 0.00 0.00 0.00 66 1018.4
20260505081026 15 67 1.6 3.2 0.00 0.00 0.00 66 1018.4
20260505080522 15 104 0.0 0.0 0.00 0.00 0.00 65 1018.4
20260505080020 15 76 1.6 1.6 0.00 0.00 0.00 65 1018.5
20260505075515 15 256 0.0 1.6 0.00 0.00 0.00 65 1018.7
20260505075012 15 104 0.0 0.0 0.00 0.00 0.00 64 1018.5
20260505074510 15 107 0.0 0.0 0.00 0.00 0.00 64 1018.7
20260505074007 15 79 3.2 3.2 0.00 0.00 0.00 63 1018.7
20260505073504 15 73 1.6 3.2 0.00 0.00 0.00 62 1018.6
20260505073002 15 335 4.8 4.8 0.00 0.00 0.00 61 1018.7
20260505072457 15 61 3.2 3.2 0.00 0.00 0.00 60 1018.7
20260505071954 15 87 1.6 3.2 0.00 0.00 0.00 61 1018.8
20260505071449 16 95 3.2 3.2 0.00 0.00 0.00 60 1018.7
20260505070948 16 86 3.2 3.2 0.00 0.00 0.00 60 1018.8
20260505070444 16 65 3.2 3.2 0.00 0.00 0.00 59 1018.9
20260505065940 16 82 3.2 4.8 0.00 0.00 0.00 62 1018.9
20260505065437 16 106 1.6 1.6 0.00 0.00 0.00 62 1018.6
20260505064933 16 102 0.0 0.0 0.00 0.00 0.00 61 1018.5
20260505064430 16 100 0.0 1.6 0.00 0.00 0.00 60 1018.6
20260505063929 16 111 0.0 0.0 0.00 0.00 0.00 56 1018.7
20260505063425 16 107 0.0 0.0 0.00 0.00 0.00 56 1018.8
20260505062922 16 99 0.0 0.0 0.00 0.00 0.00 54 1018.8
20260505062419 16 128 0.0 0.0 0.00 0.00 0.00 54 1018.7
20260505061915 16 101 0.0 0.0 0.00 0.00 0.00 53 1018.8
20260505061414 16 106 0.0 0.0 0.00 0.00 0.00 52 1018.9
20260505060911 16 105 1.6 3.2 0.00 0.00 0.00 51 1019.0
20260505060408 16 101 0.0 0.0 0.00 0.00 0.00 50 1018.8
20260505055904 16 105 0.0 1.6 0.00 0.00 0.00 50 1018.6
20260505055400 16 106 3.2 4.8 0.00 0.00 0.00 49 1018.6
20260505054857 16 75 1.6 3.2 0.00 0.00 0.00 48 1018.6
20260505054354 16 79 1.6 1.6 0.00 0.00 0.00 49 1018.5
20260505053852 16 102 0.0 0.0 0.00 0.00 0.00 48 1018.7
20260505053349 16 102 1.6 1.6 0.00 0.00 0.00 47 1018.7
20260505052846 16 78 4.8 6.4 0.00 0.00 0.00 47 1018.7
20260505052343 16 86 1.6 1.6 0.00 0.00 0.00 47 1018.7
20260505051840 16 84 3.2 3.2 0.00 0.00 0.00 46 1018.9
20260505051337 16 84 0.0 1.6 0.00 0.00 0.00 46 1018.8
20260505050835 16 105 0.0 0.0 0.00 0.00 0.00 47 1018.8
20260505050334 16 106 0.0 0.0 0.00 0.00 0.00 46 1018.8
20260505041301 17 89 4.8 6.4 0.00 0.00 0.00 45 1018.0
20260505040758 16 212 4.8 6.4 0.00 0.00 0.00 46 1018.4
20260505040255 16 93 1.6 1.6 0.00 0.00 0.00 46 1018.8
20260505035752 16 206 3.2 3.2 0.00 0.00 0.00 46 1018.8
20260505035248 16 65 3.2 3.2 0.00 0.00 0.00 45 1018.8
20260505034745 16 62 1.6 1.6 0.00 0.00 0.00 45 1018.8
20260505034242 16 63 3.2 4.8 0.00 0.00 0.00 45 1018.8
20260505033738 16 91 3.2 3.2 0.00 0.00 0.00 45 1018.9
20260505033236 16 355 8.0 11.3 0.00 0.00 0.00 45 1018.6
20260505032734 16 105 1.6 3.2 0.00 0.00 0.00 45 1018.4
20260505032229 16 344 6.4 11.3 0.00 0.00 0.00 45 1018.6
20260505031727 16 43 4.8 6.4 0.00 0.00 0.00 45 1018.1
20260505031223 16 289 3.2 12.9 0.00 0.00 0.00 45 1018.1
20260505030721 17 355 3.2 4.8 0.00 0.00 0.00 44 1018.1
20260505030216 17 32 4.8 4.8 0.00 0.00 0.00 44 1017.7
20260505025712 17 67 9.7 12.9 0.00 0.00 0.00 44 1017.9
20260505025211 17 274 8.0 12.9 0.00 0.00 0.00 43 1017.6